Track STARLINK-4300 now! 10-day predictions STARLINK-4300 is classified as:
1 53173U 22083AT 22224.83335648 -.00103456 00000-0 -73902-3 0 9991 2 53173 53.2167 276.9347 0002999 14.9160 132.6989 15.73279964 4783